Flag Island, MN

7:32 PM CDT on April 24, 2018 (GMT -0500)
Flag Island

Weather History for KFGN - December, 2013

Change the Weather History Date:

Monday, December 2, 2013

  Actual Average Record
Temperature  
Mean Temperature 19 °F -  
Max Temperature 23 °F 23 °F 37 °F (1999)
Min Temperature 15 °F 12 °F -9 °F (2002)
Degree Days  
Heating Degree Days 46    
Moisture  
Dew Point 18 °F    
Average Humidity 90    
Maximum Humidity 100    
Minimum Humidity 86    
Precipitation  
Precipitation 0.00 in - - ()
Sea Level Pressure  
Sea Level Pressure 29.83 in    
Wind  
Wind Speed 7 mph (ENE)    
Max Wind Speed 18 mph    
Max Gust Speed 24 mph    
Visibility 10 miles    
Events Snow    
Averages and records for this station are not official NWS values.
T = Trace of Precipitation, MM = Missing Value Source: NWS Daily Summary

Daily Weather History Graph

Daily Weather History Graph

Search for Another Location

Airport or City:

Astronomy

Dec. 02, 2013 Rise Set
Actual Time 7:55 AM CST 4:22 PM CST
Civil Twilight 7:18 AM CST 4:59 PM CST
Nautical Twilight 6:38 AM CST 5:39 PM CST
Astronomical Twilight 5:59 AM CST 6:18 PM CST
Moon 7:17 AM CST (12/2) 4:29 PM CST (12/2)
Length of Visible Light 9h 41m
Length of Day
8h 27m
Waning Crescent, 0% of the Moon is Illuminated
Dec 2
Waning Crescent
Dec 2
New
Dec 9
First Quarter
Dec 17
Full
Dec 25
Last Quarter

Hourly Weather History & Observations

Time (CST) Temp. Windchill Dew Point Humidity Pressure Visibility Wind Dir Wind Speed Gust Speed Precip Events Conditions
12:14 AM 17.6 °F - 15.8 °F 93% 29.93 in 10.0 mi Calm Calm - N/A   Scattered Clouds
12:33 AM 15.8 °F - 14.0 °F 93% 29.93 in 10.0 mi Calm Calm - N/A   Scattered Clouds
12:53 AM 17.6 °F - 15.8 °F 93% 29.92 in 10.0 mi Calm Calm - N/A   Mostly Cloudy
1:14 AM 15.8 °F - 12.2 °F 86% 29.92 in 10.0 mi Calm Calm - N/A   Overcast
1:33 AM 15.8 °F 10.2 °F 12.2 °F 86% 29.91 in 10.0 mi ENE 3.5 mph - N/A   Overcast
1:53 AM 17.6 °F 9.3 °F 15.8 °F 93% 29.90 in 10.0 mi ENE 5.8 mph - N/A   Overcast
2:13 AM 17.6 °F 12.3 °F 15.8 °F 93% 29.90 in 10.0 mi East 3.5 mph - N/A   Overcast
2:33 AM 17.6 °F 10.7 °F 15.8 °F 93% 29.89 in 10.0 mi East 4.6 mph - N/A   Scattered Clouds
2:53 AM 17.6 °F 12.3 °F 15.8 °F 93% 29.88 in 10.0 mi East 3.5 mph - N/A   Scattered Clouds
3:13 AM 17.6 °F 10.7 °F 15.8 °F 93% 29.88 in 10.0 mi ENE 4.6 mph - N/A   Overcast
3:33 AM 17.6 °F 12.3 °F 15.8 °F 93% 29.87 in 10.0 mi East 3.5 mph - N/A   Scattered Clouds
3:53 AM 17.6 °F 10.7 °F 15.8 °F 93% 29.87 in 10.0 mi East 4.6 mph - N/A   Mostly Cloudy
4:13 AM 17.6 °F 9.3 °F 15.8 °F 93% 29.86 in 10.0 mi ENE 5.8 mph - N/A   Mostly Cloudy
4:33 AM 17.6 °F 8.2 °F 15.8 °F 93% 29.86 in 10.0 mi ENE 6.9 mph - N/A   Mostly Cloudy
4:53 AM 17.6 °F 8.2 °F 15.8 °F 93% 29.85 in 10.0 mi ENE 6.9 mph - N/A   Overcast
5:13 AM 17.6 °F 8.2 °F 15.8 °F 93% 29.84 in 10.0 mi ENE 6.9 mph - N/A   Overcast
5:34 AM 19.4 °F 11.5 °F 17.6 °F 93% 29.83 in 10.0 mi ENE 5.8 mph - N/A   Overcast
5:53 AM 19.4 °F 10.4 °F 17.6 °F 93% 29.83 in 10.0 mi East 6.9 mph - N/A   Overcast
6:13 AM 19.4 °F 11.5 °F 17.6 °F 93% 29.83 in 10.0 mi ENE 5.8 mph - N/A   Overcast
6:34 AM 19.4 °F 11.5 °F 17.6 °F 93% 29.83 in 10.0 mi ENE 5.8 mph - N/A   Overcast
6:53 AM 19.4 °F 11.5 °F 19.4 °F 100% 29.83 in 10.0 mi ENE 5.8 mph - N/A   Overcast
7:13 AM 21.2 °F 12.6 °F 19.4 °F 93% 29.83 in 10.0 mi ENE 6.9 mph - N/A   Overcast
7:34 AM 21.2 °F 11.7 °F 19.4 °F 93% 29.82 in 10.0 mi ENE 8.1 mph - N/A   Overcast
7:53 AM 21.2 °F 12.6 °F 19.4 °F 93% 29.82 in 10.0 mi ENE 6.9 mph - N/A   Overcast
8:13 AM 21.2 °F 12.6 °F 19.4 °F 93% 29.82 in 10.0 mi ENE 6.9 mph - N/A   Overcast
8:34 AM 21.2 °F 14.9 °F 19.4 °F 93% 29.82 in 10.0 mi ENE 4.6 mph - N/A   Overcast
8:53 AM 21.2 °F 13.6 °F 19.4 °F 93% 29.82 in 10.0 mi ENE 5.8 mph - N/A   Overcast
9:13 AM 21.2 °F 12.6 °F 19.4 °F 93% 29.82 in 10.0 mi ENE 6.9 mph - N/A   Overcast
9:34 AM 21.2 °F 11.7 °F 19.4 °F 93% 29.82 in 10.0 mi ENE 8.1 mph - N/A   Overcast
9:53 AM 21.2 °F 11.7 °F 19.4 °F 93% 29.82 in 10.0 mi ENE 8.1 mph - N/A   Overcast
10:13 AM 21.2 °F 12.6 °F 19.4 °F 93% 29.82 in 10.0 mi NE 6.9 mph - N/A   Overcast
10:34 AM 21.2 °F 11.7 °F 19.4 °F 93% 29.82 in 10.0 mi NE 8.1 mph - N/A   Overcast
10:53 AM 21.2 °F 10.9 °F 19.4 °F 93% 29.82 in 10.0 mi ENE 9.2 mph - N/A   Overcast
11:13 AM 23.0 °F 13.1 °F 19.4 °F 86% 29.81 in 10.0 mi ENE 9.2 mph - N/A   Overcast
11:34 AM 23.0 °F 11.7 °F 19.4 °F 86% 29.81 in 10.0 mi ENE 11.5 mph 16.1 mph N/A   Overcast
11:53 AM 23.0 °F 11.7 °F 19.4 °F 86% 29.80 in 10.0 mi ENE 11.5 mph 17.3 mph N/A   Overcast
12:13 PM 23.0 °F 13.9 °F 19.4 °F 86% 29.80 in 10.0 mi East 8.1 mph 17.3 mph N/A   Overcast
12:34 PM 23.0 °F 13.1 °F 19.4 °F 86% 29.80 in 10.0 mi East 9.2 mph - N/A   Overcast
12:53 PM 23.0 °F 12.4 °F 19.4 °F 86% 29.79 in 10.0 mi East 10.4 mph - N/A   Overcast
1:14 PM 23.0 °F 13.1 °F 19.4 °F 86% 29.79 in 10.0 mi East 9.2 mph - N/A   Overcast
1:33 PM 23.0 °F 11.1 °F 19.4 °F 86% 29.79 in 10.0 mi ENE 12.7 mph 16.1 mph N/A   Overcast
1:53 PM 23.0 °F 12.4 °F 19.4 °F 86% 29.79 in 10.0 mi ENE 10.4 mph - N/A   Overcast
2:14 PM 23.0 °F 12.4 °F 19.4 °F 86% 29.79 in 10.0 mi ENE 10.4 mph 17.3 mph N/A   Overcast
2:33 PM 23.0 °F 12.4 °F 19.4 °F 86% 29.79 in 10.0 mi ENE 10.4 mph - N/A   Overcast
2:53 PM 23.0 °F 10.1 °F 19.4 °F 86% 29.79 in 10.0 mi ENE 15.0 mph - N/A   Overcast
3:14 PM 23.0 °F 11.1 °F 19.4 °F 86% 29.79 in 10.0 mi NE 12.7 mph 16.1 mph N/A   Overcast
3:33 PM 21.2 °F 9.5 °F 19.4 °F 93% 29.79 in 10.0 mi NE 11.5 mph - N/A   Overcast
3:53 PM 21.2 °F 8.9 °F 19.4 °F 93% 29.79 in 7.0 mi NE 12.7 mph - N/A   Overcast
4:13 PM 21.2 °F 9.5 °F 19.4 °F 93% 29.79 in 5.0 mi NE 11.5 mph - N/A Snow Light Snow
4:33 PM 21.2 °F 10.1 °F 19.4 °F 93% 29.80 in 4.0 mi NNE 10.4 mph - N/A Snow Light Snow
4:53 PM 21.2 °F 10.1 °F 19.4 °F 93% 29.80 in 5.0 mi NE 10.4 mph 19.6 mph N/A Snow Light Snow
5:14 PM 21.2 °F 8.9 °F 19.4 °F 93% 29.81 in 7.0 mi NE 12.7 mph 18.4 mph N/A Snow Light Snow
5:33 PM 21.2 °F 8.3 °F 17.6 °F 86% 29.81 in 10.0 mi NE 13.8 mph - N/A Snow Light Snow
5:53 PM 21.2 °F 8.9 °F 17.6 °F 86% 29.81 in 10.0 mi NE 12.7 mph 20.7 mph N/A   Overcast
6:14 PM 21.2 °F 9.5 °F 17.6 °F 86% 29.81 in 10.0 mi NE 11.5 mph - N/A   Overcast
6:33 PM 21.2 °F 8.3 °F 17.6 °F 86% 29.82 in 10.0 mi NE 13.8 mph 23.0 mph N/A   Overcast
6:53 PM 21.2 °F 8.9 °F 17.6 °F 86% 29.82 in 10.0 mi NE 12.7 mph - N/A   Overcast
7:14 PM 21.2 °F 8.9 °F 17.6 °F 86% 29.83 in 10.0 mi NE 12.7 mph - N/A   Overcast
7:33 PM 21.2 °F 8.3 °F 17.6 °F 86% 29.83 in 10.0 mi NNE 13.8 mph - N/A Snow Light Snow
7:53 PM 21.2 °F 8.3 °F 17.6 °F 86% 29.83 in 10.0 mi NE 13.8 mph - N/A   Overcast
8:14 PM 21.2 °F 10.1 °F 17.6 °F 86% 29.84 in 10.0 mi NE 10.4 mph 18.4 mph N/A   Overcast
8:33 PM 19.4 °F 5.5 °F 17.6 °F 93% 29.84 in 10.0 mi NNE 15.0 mph - N/A   Overcast
8:53 PM 19.4 °F 5.5 °F 15.8 °F 86% 29.85 in 10.0 mi NNE 15.0 mph 18.4 mph N/A   Overcast
9:13 PM 19.4 °F 5.0 °F 15.8 °F 86% 29.85 in 10.0 mi NE 16.1 mph - N/A Snow Light Snow
9:33 PM 19.4 °F 5.0 °F 15.8 °F 86% 29.85 in 10.0 mi NE 16.1 mph - N/A Snow Light Snow
9:53 PM 19.4 °F 5.5 °F 15.8 °F 86% 29.84 in 10.0 mi NE 15.0 mph 19.6 mph N/A   Overcast
10:13 PM 19.4 °F 4.1 °F 15.8 °F 86% 29.85 in 10.0 mi NE 18.4 mph 24.2 mph N/A   Overcast
10:33 PM 19.4 °F 5.0 °F 15.8 °F 86% 29.85 in 10.0 mi NE 16.1 mph 23.0 mph N/A   Overcast
10:53 PM 19.4 °F 5.5 °F 15.8 °F 86% 29.85 in 10.0 mi NE 15.0 mph 24.2 mph N/A   Overcast
11:13 PM 19.4 °F 4.1 °F 15.8 °F 86% 29.85 in 10.0 mi NE 18.4 mph - N/A   Overcast
11:33 PM 19.4 °F 4.5 °F 15.8 °F 86% 29.85 in 10.0 mi NE 17.3 mph 24.2 mph N/A Snow Light Snow
11:53 PM 19.4 °F 4.5 °F 15.8 °F 86% 29.86 in 10.0 mi NE 17.3 mph 24.2 mph N/A   Overcast